AMX292 MMMX-MMVR

Flight info

Callsign AMX292
Flight time 0h 33m
Altitude 25000
Route UKUNO3A UKUNO UT108 TEVET TEVET1A
Aircraft B738/M-SDE2E3FGHIRWXY/LB1

Departure

Time 2026-04-25 04:20
Airport Mexico City Benito Juárez International Airport (MMMX)

Arrival

Time 2026-04-25 04:53
Airport General Heriberto Jara International Airport (MMVR)
Time Latitude Longitude Altitude Speed Heading
2026-04-25 03:50 19.42212 -99.08084 7302 ft 0 kts 54°
2026-04-25 04:08 19.42211 -99.08085 7293 ft 2 kts 54°
2026-04-25 04:09 19.42194 -99.08105 7302 ft 4 kts 29°
2026-04-25 04:09 19.42171 -99.08110 7302 ft 4 kts 337°
2026-04-25 04:09 19.42155 -99.08098 7302 ft 0 kts 301°
2026-04-25 04:09 19.42155 -99.08097 7302 ft 2 kts 301°
2026-04-25 04:14 19.42155 -99.08098 7302 ft 0 kts 301°
2026-04-25 04:14 19.42164 -99.08113 7302 ft 5 kts 301°
2026-04-25 04:14 19.42193 -99.08163 7302 ft 10 kts 301°
2026-04-25 04:14 19.42263 -99.08204 7302 ft 14 kts
2026-04-25 04:15 19.42349 -99.08200 7302 ft 8 kts 350°
2026-04-25 04:15 19.42414 -99.08223 7302 ft 12 kts 331°
2026-04-25 04:15 19.42500 -99.08275 7302 ft 16 kts 330°
2026-04-25 04:15 19.42562 -99.08334 7302 ft 12 kts 297°
2026-04-25 04:16 19.42595 -99.08411 7302 ft 11 kts 294°
2026-04-25 04:16 19.42616 -99.08462 7302 ft 11 kts 293°
2026-04-25 04:16 19.42647 -99.08536 7302 ft 11 kts 294°
2026-04-25 04:16 19.42673 -99.08635 7304 ft 10 kts 273°
2026-04-25 04:17 19.42677 -99.08687 7302 ft 11 kts 274°
2026-04-25 04:17 19.42682 -99.08765 7302 ft 11 kts 274°
2026-04-25 04:17 19.42688 -99.08843 7302 ft 10 kts 274°
2026-04-25 04:17 19.42693 -99.08919 7302 ft 10 kts 272°
2026-04-25 04:18 19.42697 -99.08992 7302 ft 10 kts 274°
2026-04-25 04:18 19.42716 -99.09058 7302 ft 10 kts 321°
2026-04-25 04:18 19.42769 -99.09030 7302 ft 9 kts 56°
2026-04-25 04:18 19.42774 -99.09021 7302 ft 0 kts 57°
2026-04-25 04:19 19.42792 -99.08991 7302 ft 17 kts 59°
2026-04-25 04:19 19.42978 -99.08659 7300 ft 87 kts 59°
2026-04-25 04:19 19.43396 -99.07914 7304 ft 147 kts 59°
2026-04-25 04:19 19.44011 -99.06814 7324 ft 197 kts 60°
2026-04-25 04:20 19.44730 -99.05538 8079 ft 204 kts 60°
2026-04-25 04:20 19.45456 -99.04274 9130 ft 200 kts 61°
2026-04-25 04:20 19.46208 -99.02933 9260 ft 224 kts 60°
2026-04-25 04:20 19.47029 -99.01443 9374 ft 242 kts 60°
2026-04-25 04:21 19.47899 -98.99886 9612 ft 257 kts 59°
2026-04-25 04:21 19.48834 -98.98214 9968 ft 269 kts 58°
2026-04-25 04:21 19.49822 -98.96444 10148 ft 293 kts 59°
2026-04-25 04:21 19.50897 -98.94534 10535 ft 304 kts 58°
2026-04-25 04:22 19.51973 -98.92627 11351 ft 300 kts 58°
2026-04-25 04:22 19.53042 -98.90715 12021 ft 304 kts 59°
2026-04-25 04:22 19.53850 -98.88626 12667 ft 309 kts 71°
2026-04-25 04:22 19.54423 -98.86416 13330 ft 313 kts 73°
2026-04-25 04:23 19.54956 -98.84167 13976 ft 317 kts 73°
2026-04-25 04:23 19.55508 -98.81890 14580 ft 320 kts 73°
2026-04-25 04:23 19.56088 -98.79608 15207 ft 322 kts 72°
2026-04-25 04:23 19.56688 -98.77303 15828 ft 325 kts 72°
2026-04-25 04:24 19.57297 -98.74983 16435 ft 329 kts 72°
2026-04-25 04:24 19.57655 -98.72602 16976 ft 337 kts 91°
2026-04-25 04:24 19.57313 -98.70043 17137 ft 356 kts 100°
2026-04-25 04:24 19.56789 -98.67449 17249 ft 374 kts 102°
2026-04-25 04:25 19.56195 -98.64694 17379 ft 390 kts 102°
2026-04-25 04:25 19.55583 -98.61839 17572 ft 403 kts 102°
2026-04-25 04:25 19.54970 -98.58907 17998 ft 408 kts 101°
2026-04-25 04:25 19.54366 -98.55958 18512 ft 410 kts 101°
2026-04-25 04:26 19.53771 -98.53005 19128 ft 405 kts 101°
2026-04-25 04:26 19.53192 -98.50119 20026 ft 394 kts 101°
2026-04-25 04:26 19.52638 -98.47349 20964 ft 383 kts 101°
2026-04-25 04:26 19.52094 -98.44628 21940 ft 372 kts 101°
2026-04-25 04:27 19.51559 -98.41959 22652 ft 370 kts 101°
2026-04-25 04:27 19.51021 -98.39276 23112 ft 375 kts 101°
2026-04-25 04:27 19.50475 -98.36555 23543 ft 380 kts 101°
2026-04-25 04:27 19.49924 -98.33803 23939 ft 383 kts 101°
2026-04-25 04:28 19.49369 -98.31035 24353 ft 386 kts 101°
2026-04-25 04:28 19.48809 -98.28244 24789 ft 388 kts 101°
2026-04-25 04:28 19.48242 -98.25420 24976 ft 397 kts 101°
2026-04-25 04:28 19.47656 -98.22503 24985 ft 409 kts 101°
2026-04-25 04:29 19.47056 -98.19517 24998 ft 420 kts 101°
2026-04-25 04:29 19.46447 -98.16492 24990 ft 430 kts 101°
2026-04-25 04:29 19.45815 -98.13358 24990 ft 439 kts 101°
2026-04-25 04:29 19.45167 -98.10147 24994 ft 448 kts 101°
2026-04-25 04:30 19.44508 -98.06882 24987 ft 453 kts 101°
2026-04-25 04:30 19.43847 -98.03613 24972 ft 452 kts 101°
2026-04-25 04:30 19.43224 -98.00398 24973 ft 450 kts 98°
2026-04-25 04:30 19.42789 -97.97114 24969 ft 449 kts 95°
2026-04-25 04:31 19.42482 -97.93827 24984 ft 448 kts 94°
2026-04-25 04:31 19.42218 -97.90542 24983 ft 448 kts 94°
2026-04-25 04:31 19.41954 -97.87253 24977 ft 448 kts 94°
2026-04-25 04:31 19.41674 -97.83958 24987 ft 447 kts 94°
2026-04-25 04:32 19.41381 -97.80724 24969 ft 434 kts 94°
2026-04-25 04:32 19.41084 -97.77583 24808 ft 425 kts 94°
2026-04-25 04:32 19.40784 -97.74488 24577 ft 419 kts 94°
2026-04-25 04:32 19.40484 -97.71428 24360 ft 416 kts 95°
2026-04-25 04:33 19.40184 -97.68386 24144 ft 415 kts 95°
2026-04-25 04:33 19.39884 -97.65344 23932 ft 415 kts 95°
2026-04-25 04:33 19.39585 -97.62309 23716 ft 414 kts 95°
2026-04-25 04:33 19.39286 -97.59290 23373 ft 411 kts 94°
2026-04-25 04:34 19.38990 -97.56294 22934 ft 407 kts 95°
2026-04-25 04:34 19.38699 -97.53360 22507 ft 404 kts 95°
2026-04-25 04:34 19.38402 -97.50375 22074 ft 401 kts 95°
2026-04-25 04:34 19.38115 -97.47485 21649 ft 398 kts 95°
2026-04-25 04:35 19.37826 -97.44579 21227 ft 395 kts 95°
2026-04-25 04:35 19.37539 -97.41694 20801 ft 393 kts 95°
2026-04-25 04:35 19.37252 -97.38822 20374 ft 391 kts 95°
2026-04-25 04:35 19.36966 -97.35969 19953 ft 389 kts 95°
2026-04-25 04:36 19.36682 -97.33128 19509 ft 387 kts 95°
2026-04-25 04:36 19.36398 -97.30295 19080 ft 386 kts 95°
2026-04-25 04:36 19.36115 -97.27479 18768 ft 381 kts 95°
2026-04-25 04:36 19.35834 -97.24693 18390 ft 378 kts 95°
2026-04-25 04:37 19.35555 -97.21924 17951 ft 377 kts 95°
2026-04-25 04:37 19.35282 -97.19214 17529 ft 374 kts 95°
2026-04-25 04:37 19.35002 -97.16450 17091 ft 372 kts 95°
2026-04-25 04:37 19.34731 -97.13775 16683 ft 369 kts 95°
2026-04-25 04:38 19.34460 -97.11094 16475 ft 361 kts 95°
2026-04-25 04:38 19.34194 -97.08485 16295 ft 352 kts 95°
2026-04-25 04:38 19.33935 -97.05935 16144 ft 344 kts 96°
2026-04-25 04:38 19.33372 -97.03517 15842 ft 337 kts 114°
2026-04-25 04:39 19.32346 -97.01316 15530 ft 330 kts 117°
2026-04-25 04:39 19.31283 -96.99174 15176 ft 328 kts 117°
2026-04-25 04:39 19.30219 -96.97046 14848 ft 327 kts 117°
2026-04-25 04:39 19.29155 -96.94907 14507 ft 329 kts 117°
2026-04-25 04:40 19.28090 -96.92752 14139 ft 331 kts 117°
2026-04-25 04:40 19.27036 -96.90604 13789 ft 327 kts 117°
2026-04-25 04:40 19.25998 -96.88481 13414 ft 322 kts 116°
2026-04-25 04:40 19.24979 -96.86389 13048 ft 317 kts 116°
2026-04-25 04:41 19.23977 -96.84330 12692 ft 313 kts 117°
2026-04-25 04:41 19.22987 -96.82292 12370 ft 311 kts 117°
2026-04-25 04:41 19.21996 -96.80253 12043 ft 311 kts 117°
2026-04-25 04:41 19.21006 -96.78215 11718 ft 312 kts 117°
2026-04-25 04:42 19.20014 -96.76174 11379 ft 312 kts 117°
2026-04-25 04:42 19.19023 -96.74134 11044 ft 312 kts 117°
2026-04-25 04:42 19.18032 -96.72098 10727 ft 311 kts 117°
2026-04-25 04:42 19.17043 -96.70064 10395 ft 310 kts 117°
2026-04-25 04:43 19.16064 -96.68052 10061 ft 305 kts 117°
2026-04-25 04:43 19.15110 -96.66092 9870 ft 291 kts 117°
2026-04-25 04:43 19.14180 -96.64181 9442 ft 295 kts 117°
2026-04-25 04:43 19.13241 -96.62252 9085 ft 295 kts 117°
2026-04-25 04:44 19.12333 -96.60390 8778 ft 291 kts 118°
2026-04-25 04:44 19.11421 -96.58516 8469 ft 285 kts 118°
2026-04-25 04:44 19.10523 -96.56674 8165 ft 279 kts 118°
2026-04-25 04:44 19.09635 -96.54853 7887 ft 278 kts 118°
2026-04-25 04:45 19.08750 -96.53039 7600 ft 277 kts 118°
2026-04-25 04:45 19.07868 -96.51232 7323 ft 276 kts 118°
2026-04-25 04:45 19.06986 -96.49424 7034 ft 276 kts 118°
2026-04-25 04:45 19.06106 -96.47622 6752 ft 275 kts 119°
2026-04-25 04:46 19.05229 -96.45826 6469 ft 275 kts 119°
2026-04-25 04:46 19.04351 -96.44029 6179 ft 275 kts 119°
2026-04-25 04:46 19.03475 -96.42237 5886 ft 274 kts 119°
2026-04-25 04:46 19.02613 -96.40471 5584 ft 267 kts 119°
2026-04-25 04:47 19.01770 -96.38745 5304 ft 261 kts 119°
2026-04-25 04:47 19.00956 -96.37079 5034 ft 255 kts 120°
2026-04-25 04:47 19.00153 -96.35438 4767 ft 248 kts 120°
2026-04-25 04:47 18.99374 -96.33846 4512 ft 241 kts 120°
2026-04-25 04:48 18.98616 -96.32298 4262 ft 233 kts 120°
2026-04-25 04:48 18.97941 -96.30784 4035 ft 223 kts 109°
2026-04-25 04:48 18.97604 -96.29225 3816 ft 212 kts 103°
2026-04-25 04:48 18.97350 -96.27735 3598 ft 201 kts 103°
2026-04-25 04:49 18.97100 -96.26301 3392 ft 195 kts 103°
2026-04-25 04:49 18.96855 -96.24931 3192 ft 189 kts 103°
2026-04-25 04:49 18.96818 -96.23547 2979 ft 190 kts 74°
2026-04-25 04:49 18.97564 -96.22442 2807 ft 192 kts 33°
2026-04-25 04:50 18.98842 -96.22008 2665 ft 195 kts 11°
2026-04-25 04:50 19.00195 -96.21729 2453 ft 199 kts 12°
2026-04-25 04:50 19.01538 -96.21447 2246 ft 198 kts 12°
2026-04-25 04:50 19.02872 -96.21169 2018 ft 190 kts 13°
2026-04-25 04:51 19.04138 -96.20906 1834 ft 181 kts 13°
2026-04-25 04:51 19.05336 -96.20657 1775 ft 167 kts 13°
2026-04-25 04:51 19.06423 -96.20430 1747 ft 158 kts 14°
2026-04-25 04:51 19.07507 -96.20211 1534 ft 155 kts 13°
2026-04-25 04:52 19.08565 -96.19996 1309 ft 155 kts 15°
2026-04-25 04:52 19.09621 -96.19772 1028 ft 157 kts 14°
2026-04-25 04:52 19.10691 -96.19545 795 ft 154 kts 12°
2026-04-25 04:52 19.11716 -96.19335 480 ft 144 kts 11°
2026-04-25 04:53 19.12688 -96.19132 203 ft 144 kts 11°
2026-04-25 04:53 19.13624 -96.18932 120 ft 124 kts 11°
2026-04-25 04:53 19.14263 -96.18801 115 ft 62 kts 11°
2026-04-25 04:53 19.14510 -96.18750 115 ft 16 kts 11°
2026-04-25 04:54 19.14568 -96.18698 112 ft 12 kts 90°
2026-04-25 04:54 19.14558 -96.18631 115 ft 3 kts 100°
2026-04-25 04:54 19.14557 -96.18626 114 ft 2 kts 100°
2026-04-25 04:55 19.14553 -96.18607 113 ft 4 kts 101°
2026-04-25 04:55 19.14545 -96.18570 116 ft 6 kts 111°
2026-04-25 04:55 19.14507 -96.18549 116 ft 7 kts 179°
2026-04-25 04:55 19.14449 -96.18561 114 ft 9 kts 191°
2026-04-25 04:56 19.14396 -96.18571 114 ft 6 kts 190°
2026-04-25 04:56 19.14365 -96.18572 115 ft 4 kts 162°
2026-04-25 04:56 19.14350 -96.18546 115 ft 4 kts 105°
2026-04-25 04:56 19.14343 -96.18515 117 ft 4 kts 105°
2026-04-25 04:57 19.14325 -96.18493 117 ft 3 kts 160°
2026-04-25 04:57 19.14279 -96.18501 117 ft 11 kts 191°
2026-04-25 04:57 19.14265 -96.18504 117 ft 1 kts 191°
2026-04-25 04:57 19.14248 -96.18506 115 ft 4 kts 177°
2026-04-25 04:58 19.14229 -96.18484 118 ft 4 kts 110°
2026-04-25 04:58 19.14223 -96.18457 117 ft 3 kts 101°
2026-04-25 04:58 19.14220 -96.18441 117 ft 0 kts 101°